Location: Bismarck
(46.7731°N, 100.8200°W)
Time: 22:01:10
(UTC-06:00)

Amateur Radio Satellites - All Passes

Search period start: 25 November 2014 21:31
Search period end: 26 November 2014 21:31
Location: Bismarck, 46.7731°N, 100.8200°W

Satellite Date Start Highest point End Downlink Frequencies (MHz)
Time Altitude Azimuth
CUTE 1.7 & AOD 2 25 Nov 21:38:26 21:42:06 29° 265° (W) 21:45:48 437.475
BRITE-PL 25 Nov 21:46:59 21:51:15 28° 265° (W) 21:55:17 437.365/2234.400
PCSat 25 Nov 21:48:47 21:53:47 36° 314° (NW) 21:58:48 145.827
HO-68 25 Nov 21:51:15 21:57:37 34° 265° (W) 22:04:02 435.675
AIST 2 25 Nov 21:55:24 21:59:40 86° 307° (NW) 22:04:00 435.215
AISAT 25 Nov 21:55:58 22:00:17 50° 71° (ENE) 22:04:37 437.250
UKube-1 25 Nov 22:02:14 22:06:27 49° 260° (W) 22:10:43 .
FUNcube-1 25 Nov 22:04:48 22:09:00 86° 76° (ENE) 22:13:12 145.935
TIGRISAT 25 Nov 22:08:33 22:09:43 11° 88° (E) 22:10:53 435.000
CUBEBUG 1 25 Nov 22:10:29 22:14:13 27° 66° (ENE) 22:17:57 437.445
SEEDS 25 Nov 22:13:17 22:15:45 15° 270° (W) 22:18:15 437.485
Oscar 11 25 Nov 22:14:09 22:18:05 34° 263° (W) 22:22:03 145.826/435.025
DOVE 4 25 Nov 22:17:19 22:20:59 24° 266° (W) 22:24:32 437.250
UNISAT 6 25 Nov 22:20:47 22:23:26 15° 90° (E) 22:26:06 437.425
CUBEBUG 2 25 Nov 22:30:02 22:34:00 38° 262° (W) 22:37:56 437.445
UWE-3 25 Nov 22:30:38 22:34:40 43° 261° (W) 22:38:40 435.000/436.395/437.385
AAUSAT CUBESAT 2 25 Nov 22:31:12 22:33:09 13° 271° (W) 22:35:07 437.432
RS-15 25 Nov 22:33:26 22:43:09 33° 16° (NNE) 22:53:08 29.354- 29.394
DELFI C3 25 Nov 22:35:55 22:39:11 23° 266° (W) 22:42:29 145.870
POPSAT HIP 1 25 Nov 22:36:25 22:38:43 14° 90° (E) 22:41:01 437.405
DX 1 25 Nov 22:38:40 22:42:04 22° 266° (W) 22:45:29 434.975-435.025
50 SAT 25 Nov 22:41:05 22:45:06 73° 258° (WSW) 22:49:09 437.505
GONETS M04 25 Nov 22:45:19 22:48:17 12° 291° (WNW) 22:51:14
BEESAT 3 25 Nov 22:46:45 22:49:52 20° 324° (NW) 22:53:02 437.485
ANTELSAT 25 Nov 22:48:35 22:52:28 29° 95° (E) 22:56:23 437.575/2403.000
HUMSAT D 25 Nov 22:50:56 22:54:56 48° 261° (W) 22:58:56 437.325/437.525
CINEMA 3 25 Nov 22:56:10 22:58:42 15° 269° (W) 23:01:12 145.822/145.860
BEESAT 2 25 Nov 23:02:26 23:05:17 18° 326° (NNW) 23:08:11 435.950
ESTCUBE 1 25 Nov 23:03:53 23:08:27 89° 254° (WSW) 23:13:03 437.505/2401.250
VELOX 1 25 Nov 23:06:44 23:10:48 34° 263° (W) 23:14:53 145.980
ZACube-1 25 Nov 23:07:11 23:10:27 22° 267° (W) 23:13:42 437.345
POLYITAN 1 25 Nov 23:08:44 23:12:30 31° 96° (E) 23:16:15 437.675
QB50P2 25 Nov 23:10:48 23:14:38 32° 96° (E) 23:18:26 145.880/145.840
DUCHIFAT 1 25 Nov 23:16:55 23:20:51 36° 97° (E) 23:24:44 145.980
CUSAT 1 25 Nov 23:24:22 23:28:08 26° 73° (ENE) 23:32:52 437.405
TISAT 1 25 Nov 23:25:42 23:29:43 41° 70° (ENE) 23:33:44 437.305
AUBIESAT-1 25 Nov 23:27:50 23:30:37 17° 53° (NE) 23:33:32 437.475
M-CUBED/EXP-1 PRIME 25 Nov 23:32:32 23:35:38 20° 55° (NE) 23:38:54 437.505
AISAT 25 Nov 23:34:01 23:37:13 19° 268° (W) 23:40:24 437.250
SPROUT 25 Nov 23:34:50 23:38:56 44° 70° (ENE) 23:43:04 437.525
AIST 2 25 Nov 23:36:03 23:38:57 17° 327° (NNW) 23:41:53 435.215
NANOSAT C BR1 25 Nov 23:36:09 23:40:20 59° 101° (E) 23:44:30 145.865
PCSat 25 Nov 23:36:49 23:38:52 12° 338° (NNW) 23:40:55 145.827
TIGRISAT 25 Nov 23:42:37 23:47:03 85° 285° (WNW) 23:51:33 435.000
QB50P1 25 Nov 23:46:00 23:50:15 76° 103° (ESE) 23:54:27 145.935-145.965
CUBEBUG 1 25 Nov 23:46:24 23:50:29 35° 263° (W) 23:54:34 437.445
DANDE 25 Nov 23:49:12 23:53:07 36° 76° (ENE) 23:58:16 436.750
UNISAT 6 25 Nov 23:56:15 00:00:37 61° 287° (WNW) 00:05:04 437.425
BUGSAT 1 25 Nov 23:57:39 00:01:46 84° 104° (ESE) 00:05:49 437.445
MaSat-1 25 Nov 23:59:37 00:00:43 12° 50° (NE) 00:01:49 437.345
ISS 26 Nov 00:06:19 00:09:12 29° 142° (SE) 00:12:07 145.825
ITUPSAT 1 26 Nov 00:08:21 00:12:02 22° 62° (ENE) 00:15:43 437.325
POPSAT HIP 1 26 Nov 00:10:52 00:15:02 59° 287° (WNW) 00:19:11 437.405
SWISSCUBE 26 Nov 00:18:48 00:22:56 29° 65° (ENE) 00:27:04 437.505
ANTELSAT 26 Nov 00:25:20 00:29:17 33° 292° (WNW) 00:33:18 437.575/2403.000
POLYITAN 1 26 Nov 00:44:48 00:48:24 28° 294° (WNW) 00:51:59 437.675
ESTCUBE 1 26 Nov 00:45:13 00:46:00 10° 273° (W) 00:46:48 437.505/2401.250
RS-15 26 Nov 00:46:52 00:58:00 68° 46° (NE) 01:09:34 29.354- 29.394
QB50P2 26 Nov 00:46:55 00:50:28 26° 294° (WNW) 00:54:00 145.880/145.840
BEESAT 26 Nov 00:49:17 00:53:55 50° 70° (ENE) 00:58:34 436.000
DUCHIFAT 1 26 Nov 00:53:11 00:56:33 24° 295° (WNW) 00:59:54 145.980
AUBIESAT-1 26 Nov 01:00:58 01:05:03 67° 253° (WSW) 01:09:33 437.475
TISAT 1 26 Nov 01:02:29 01:05:44 21° 267° (W) 01:08:59 437.305
M-CUBED/EXP-1 PRIME 26 Nov 01:06:15 01:10:15 54° 255° (WSW) 01:14:41 437.505
CUSAT 1 26 Nov 01:07:04 01:11:16 40° 263° (W) 01:16:46 437.405
SPROUT 26 Nov 01:12:05 01:15:15 20° 268° (W) 01:18:26 437.525
NANOSAT C BR1 26 Nov 01:13:13 01:15:47 16° 299° (WNW) 01:18:21 145.865
KKS-1 26 Nov 01:18:49 01:22:17 23° 63° (ENE) 01:25:45 437.445
TIGRISAT 26 Nov 01:21:46 01:23:08 11° 302° (WNW) 01:24:29 435.000
QB50P1 26 Nov 01:23:37 01:25:34 13° 301° (WNW) 01:27:31 145.935-145.965
DANDE 26 Nov 01:32:51 01:36:35 27° 265° (W) 01:41:17 436.750
ITAMSAT 1 26 Nov 01:33:21 01:34:07 10° 85° (E) 01:34:52 435.822/435.867
MaSat-1 26 Nov 01:33:26 01:35:16 20° 248° (WSW) 01:37:07 437.345
BUGSAT 1 26 Nov 01:35:21 01:36:38 11° 302° (WNW) 01:37:56 437.445
ISS 26 Nov 01:42:27 01:45:43 58° 340° (NNW) 01:48:58 145.825
ITUPSAT 1 26 Nov 01:44:54 01:49:36 52° 260° (W) 01:54:20 437.325
SWISSCUBE 26 Nov 01:56:14 02:00:41 37° 263° (W) 02:05:10 437.505
YUBILEINY 26 Nov 02:03:37 02:11:04 32° 82° (E) 02:18:29 435.215
Gurwin Techsat 1B 26 Nov 02:03:41 02:05:56 13° 86° (E) 02:08:09 435.225
STARS 26 Nov 02:13:46 02:18:02 52° 71° (ENE) 02:22:19 437.465
Oscar 19 26 Nov 02:16:16 02:21:25 65° 102° (ESE) 02:26:34 437.125/150
BEESAT 26 Nov 02:28:25 02:32:02 21° 268° (W) 02:35:41 436.000
KKS-1 26 Nov 02:54:27 02:58:42 43° 261° (W) 03:02:57 437.445
RS-15 26 Nov 02:59:41 03:09:55 43° 250° (WSW) 03:20:34 29.354- 29.394
PCSat 26 Nov 03:07:21 03:10:56 17° 32° (NNE) 03:14:30 145.827
ITAMSAT 1 26 Nov 03:09:16 03:14:29 77° 104° (ESE) 03:19:39 435.822/435.867
SO-50 26 Nov 03:18:51 03:21:23 15° 109° (ESE) 03:23:57 436.795
ISS 26 Nov 03:19:43 03:22:45 33° 360° (N) 03:25:48 145.825
AO-7 26 Nov 03:22:34 03:27:20 16° 86° (E) 03:32:04 29.400- 29.500
Gurwin Techsat 1B 26 Nov 03:41:19 03:46:40 87° 104° (ESE) 03:51:59 435.225
BEESAT 3 26 Nov 03:46:59 03:50:06 20° 36° (NE) 03:53:12 437.485
STARS 26 Nov 03:51:53 03:54:50 18° 269° (W) 03:57:49 437.465
Oscar 19 26 Nov 03:56:36 04:00:18 20° 300° (WNW) 04:03:59 437.125/150
YUBILEINY 26 Nov 03:58:34 04:07:17 64° 284° (WNW) 04:16:01 435.215
MOZHAYETS 4 26 Nov 03:59:11 04:03:10 30° 66° (ENE) 04:07:11
HORYU 2 26 Nov 03:59:41 04:04:10 63° 102° (ESE) 04:08:37 437.375
BEESAT 2 26 Nov 04:02:18 04:05:42 23° 38° (NE) 04:09:05 435.950
AIST 2 26 Nov 04:36:48 04:40:26 25° 39° (NE) 04:44:01 435.215
PCSat 26 Nov 04:49:58 04:55:24 66° 54° (NE) 05:00:47 145.827
ITAMSAT 1 26 Nov 04:50:00 04:53:22 18° 302° (WNW) 04:56:44 435.822/435.867
ISS 26 Nov 04:56:32 04:59:48 57° 20° (NNE) 05:03:03 145.825
SO-50 26 Nov 04:56:44 05:01:17 79° 308° (NW) 05:06:00 436.795
PRISM 26 Nov 05:10:13 05:13:56 31° 67° (ENE) 05:17:41 437.425
AO-7 26 Nov 05:13:09 05:21:33 74° 107° (ESE) 05:29:54 29.400- 29.500
Gurwin Techsat 1B 26 Nov 05:22:46 05:25:56 16° 304° (WNW) 05:29:06 435.225
JAS-2 26 Nov 05:23:37 05:30:17 39° 93° (E) 05:36:12 435.910
BEESAT 3 26 Nov 05:24:36 05:28:49 75° 236° (SW) 05:32:58 437.485
MOZHAYETS 4 26 Nov 05:36:10 05:40:19 33° 264° (W) 05:44:32
HORYU 2 26 Nov 05:37:30 05:40:23 17° 300° (WNW) 05:43:15 437.375
BEESAT 2 26 Nov 05:40:10 05:44:20 58° 238° (WSW) 05:48:26 435.950
CUBESAT XI-V 26 Nov 05:40:52 05:44:48 27° 65° (ENE) 05:48:45 437.345
Cubesat XI-IV 26 Nov 05:50:16 05:53:24 16° 89° (E) 05:56:30 437.490
YUBILEINY 26 Nov 06:01:19 06:06:12 16° 309° (NW) 06:11:07 435.215
O/OREOS (USA 219) 26 Nov 06:09:33 06:13:38 35° 107° (ESE) 06:17:43 437.305
STRAND 1 26 Nov 06:13:02 06:18:02 54° 70° (ENE) 06:23:03 437.568
AIST 2 26 Nov 06:15:08 06:19:20 53° 239° (WSW) 06:23:29 435.215
CUTE-I 26 Nov 06:30:26 06:35:16 34° 96° (E) 06:40:02 437.470
ISS 26 Nov 06:33:22 06:36:19 30° 218° (SW) 06:39:15 145.825
PCSat 26 Nov 06:34:18 06:38:19 21° 253° (WSW) 06:42:19 145.827
SO-50 26 Nov 06:39:22 06:42:37 19° 330° (NNW) 06:45:57 436.795
PRISM 26 Nov 06:45:52 06:49:29 27° 265° (W) 06:53:09 437.425
AIST 1 26 Nov 07:01:08 07:05:29 56° 78° (ENE) 07:09:45
AO-7 26 Nov 07:06:39 07:13:42 32° 308° (NW) 07:20:45 29.400- 29.500
JAS-2 26 Nov 07:08:35 07:15:25 45° 296° (WNW) 07:21:30 435.910
CUBESAT XI-V 26 Nov 07:17:39 07:22:05 40° 263° (W) 07:26:32 437.345
Cubesat XI-IV 26 Nov 07:28:46 07:34:07 79° 287° (WNW) 07:39:25 437.490
O/OREOS (USA 219) 26 Nov 07:49:11 07:53:05 29° 306° (NW) 07:57:00 437.305
GONETS M04 26 Nov 07:53:26 08:01:07 36° 83° (E) 08:08:51
STRAND 1 26 Nov 07:53:36 07:57:32 22° 268° (W) 08:01:30 437.568
CUTE-I 26 Nov 08:10:30 08:15:21 37° 294° (WNW) 08:20:11 437.470
AIST 1 26 Nov 08:40:10 08:42:39 15° 276° (W) 08:45:07
CANX-2 26 Nov 08:46:33 08:49:40 19° 92° (E) 08:52:46 2200.000
COMPASS 1 26 Nov 08:50:36 08:52:58 14° 90° (E) 08:55:19 437.405
JAS-2 26 Nov 08:56:41 08:58:31 11° 318° (NW) 09:00:18 435.910
QB50P1 26 Nov 09:09:58 09:10:48 11° 57° (ENE) 09:11:38 145.935-145.965
TIGRISAT 26 Nov 09:10:15 09:12:35 15° 60° (ENE) 09:14:55 435.000
Cubesat XI-IV 26 Nov 09:10:46 09:13:22 14° 306° (NW) 09:15:57 437.490
HO-68 26 Nov 09:14:39 09:21:26 43° 98° (E) 09:28:10 435.675
GOMX 1 26 Nov 09:18:21 09:21:50 25° 95° (E) 09:25:20 467.674
BUGSAT 1 26 Nov 09:18:51 09:19:57 11° 58° (ENE) 09:21:03 437.445
CUTE 1.7 & AOD 2 26 Nov 09:20:31 09:24:33 38° 97° (E) 09:28:35 437.475
UNISAT 6 26 Nov 09:23:12 09:26:16 20° 63° (ENE) 09:29:20 437.425
POPSAT HIP 1 26 Nov 09:32:34 09:35:23 18° 62° (ENE) 09:38:12 437.405
UKube-1 26 Nov 09:47:50 09:51:15 22° 94° (E) 09:54:38 .
BRITE-PL 26 Nov 09:48:02 09:52:11 71° 102° (ESE) 09:56:21 437.365/2234.400
GONETS M04 26 Nov 09:48:52 09:57:31 59° 285° (WNW) 10:06:16
ANTELSAT 26 Nov 09:51:00 09:54:53 35° 68° (ENE) 09:58:47 437.575/2403.000
FUNcube-1 26 Nov 09:52:11 09:54:14 13° 89° (E) 09:56:18 145.935
SEEDS 26 Nov 09:53:03 09:57:20 75° 102° (ESE) 10:01:37 437.485
Oscar 11 26 Nov 09:58:28 10:02:27 33° 96° (E) 10:06:24 145.826/435.025
POLYITAN 1 26 Nov 10:05:02 10:08:55 35° 68° (ENE) 10:12:47 437.675
SO-50 26 Nov 10:05:52 10:07:56 13° 20° (NNE) 10:10:00 436.795
QB50P2 26 Nov 10:06:52 10:10:47 37° 69° (ENE) 10:14:42 145.880/145.840
AAUSAT CUBESAT 2 26 Nov 10:09:18 10:13:33 84° 103° (ESE) 10:17:48 437.432
DOVE 4 26 Nov 10:12:20 10:16:30 70° 102° (ESE) 10:20:45 437.250
DUCHIFAT 1 26 Nov 10:12:37 10:16:36 41° 70° (ENE) 10:20:36 145.980
DELFI C3 26 Nov 10:13:06 10:17:02 40° 98° (E) 10:20:56 145.870
UWE-3 26 Nov 10:17:49 10:21:30 28° 95° (E) 10:25:13 435.000/436.395/437.385
CUBEBUG 2 26 Nov 10:18:08 10:21:58 32° 97° (E) 10:25:52 437.445
50 SAT 26 Nov 10:20:52 10:22:49 13° 90° (E) 10:24:46 437.505
CANX-2 26 Nov 10:21:44 10:25:50 45° 289° (WNW) 10:29:56 2200.000
DX 1 26 Nov 10:23:09 10:27:25 51° 100° (E) 10:31:38 434.975-435.025
COMPASS 1 26 Nov 10:24:54 10:29:06 60° 287° (WNW) 10:33:17 437.405
NANOSAT C BR1 26 Nov 10:31:49 10:36:03 66° 73° (ENE) 10:40:16 145.865
HUMSAT D 26 Nov 10:33:12 10:36:28 22° 93° (E) 10:39:44 437.325/437.525
QB50P1 26 Nov 10:41:44 10:46:00 83° 75° (ENE) 10:50:16 145.935-145.965
TIGRISAT 26 Nov 10:44:37 10:48:51 67° 258° (WSW) 10:53:06 435.000
CINEMA 3 26 Nov 10:45:49 10:50:02 84° 284° (WNW) 10:54:21 145.822/145.860
BUGSAT 1 26 Nov 10:50:31 10:54:47 87° 75° (ENE) 10:59:02 437.445
ZACube-1 26 Nov 10:51:51 10:56:01 55° 100° (E) 11:00:14 437.345
VELOX 1 26 Nov 10:54:32 10:58:38 36° 97° (E) 11:02:42 145.980
ESTCUBE 1 26 Nov 10:55:17 10:58:06 16° 90° (E) 11:00:54 437.505/2401.250
GOMX 1 26 Nov 10:56:21 11:00:02 31° 292° (WNW) 11:03:46 467.674
CUTE 1.7 & AOD 2 26 Nov 10:56:54 11:00:18 23° 295° (WNW) 11:03:42 437.475
UNISAT 6 26 Nov 10:58:40 11:02:47 46° 261° (W) 11:06:55 437.425
HO-68 26 Nov 11:02:27 11:09:10 44° 298° (WNW) 11:15:50 435.675
POPSAT HIP 1 26 Nov 11:06:44 11:10:55 54° 260° (W) 11:15:06 437.405
AISAT 26 Nov 11:20:50 11:25:16 69° 102° (ESE) 11:29:40 437.250
UKube-1 26 Nov 11:23:30 11:27:34 40° 291° (WNW) 11:31:37 .
FUNcube-1 26 Nov 11:26:50 11:31:02 65° 286° (WNW) 11:35:17 145.935
ANTELSAT 26 Nov 11:28:20 11:31:48 24° 266° (W) 11:35:17 437.575/2403.000
BRITE-PL 26 Nov 11:28:22 11:30:12 13° 300° (WNW) 11:32:03 437.365/2234.400
SEEDS 26 Nov 11:30:32 11:32:37 14° 300° (WNW) 11:34:42 437.485
CUBEBUG 1 26 Nov 11:32:35 11:36:35 34° 97° (E) 11:40:32 437.445
Oscar 11 26 Nov 11:34:51 11:38:31 27° 294° (WNW) 11:42:10 145.826/435.025
POLYITAN 1 26 Nov 11:41:29 11:44:57 24° 266° (W) 11:48:26 437.675
QB50P2 26 Nov 11:43:24 11:46:49 23° 266° (W) 11:50:15 145.880/145.840
SO-50 26 Nov 11:45:21 11:49:51 37° 42° (NE) 11:54:24 436.795
AAUSAT CUBESAT 2 26 Nov 11:47:00 11:48:37 12° 301° (WNW) 11:50:14 437.432
DELFI C3 26 Nov 11:48:58 11:52:06 21° 295° (WNW) 11:55:14 145.870
DUCHIFAT 1 26 Nov 11:49:27 11:52:40 21° 267° (W) 11:55:53 145.980
DOVE 4 26 Nov 11:51:49 11:53:48 13° 300° (WNW) 11:55:47 437.250
GONETS M04 26 Nov 11:52:17 11:56:42 14° 311° (NW) 12:01:08
UWE-3 26 Nov 11:54:21 11:58:03 30° 292° (WNW) 12:01:48 435.000/436.395/437.385
50 SAT 26 Nov 11:54:31 11:58:32 61° 287° (WNW) 12:02:34 437.505
CUBEBUG 2 26 Nov 11:55:04 11:58:36 26° 293° (WNW) 12:02:12 437.445
Oscar 19 26 Nov 11:58:51 12:02:25 20° 59° (ENE) 12:06:00 437.125/150
DX 1 26 Nov 12:00:15 12:03:18 19° 298° (WNW) 12:06:21 434.975-435.025
HUMSAT D 26 Nov 12:08:33 12:12:25 38° 290° (WNW) 12:16:18 437.325/437.525
YUBILEINY 26 Nov 12:09:29 12:15:21 19° 55° (NE) 12:21:09 435.215
NANOSAT C BR1 26 Nov 12:10:19 12:12:23 13° 271° (W) 12:14:27 145.865
QB50P1 26 Nov 12:21:52 12:22:29 10° 273° (W) 12:23:06 145.935-145.965
CINEMA 3 26 Nov 12:26:14 12:26:35 10° 302° (WNW) 12:26:57 145.822/145.860
ZACube-1 26 Nov 12:29:18 12:32:02 17° 298° (WNW) 12:34:48 437.345
ESTCUBE 1 26 Nov 12:30:54 12:35:24 60° 288° (WNW) 12:39:50 437.505/2401.250
VELOX 1 26 Nov 12:31:25 12:35:06 26° 295° (WNW) 12:38:44 145.980
CUSAT 1 26 Nov 12:43:33 12:44:23 11° 90° (E) 12:45:12 437.405
TISAT 1 26 Nov 12:43:38 12:47:45 50° 100° (E) 12:51:50 437.305
M-CUBED/EXP-1 PRIME 26 Nov 12:48:37 12:50:22 12° 91° (E) 12:52:05 437.505
BEESAT 26 Nov 12:50:16 12:50:36 10° 86° (E) 12:50:56 436.000
ITAMSAT 1 26 Nov 12:52:14 12:56:20 24° 61° (ENE) 13:00:27 435.822/435.867
HO-68 26 Nov 12:53:16 12:55:05 11° 320° (NW) 12:56:54 435.675
SPROUT 26 Nov 12:54:44 12:58:59 59° 101° (E) 13:03:12 437.525
AISAT 26 Nov 12:58:49 13:01:24 15° 301° (WNW) 13:03:57 437.250
CUBEBUG 1 26 Nov 13:09:11 13:12:51 27° 295° (WNW) 13:16:29 437.445
DANDE 26 Nov 13:10:02 13:12:10 21° 95° (E) 13:14:14 436.750
SO-50 26 Nov 13:25:56 13:30:29 40° 242° (WSW) 13:35:02 436.795
Gurwin Techsat 1B 26 Nov 13:26:40 13:31:06 28° 63° (ENE) 13:35:34 435.225
HORYU 2 26 Nov 13:28:11 13:29:32 11° 56° (NE) 13:30:54 437.375
Oscar 19 26 Nov 13:36:11 13:41:16 67° 258° (WSW) 13:46:23 437.125/150
ITUPSAT 1 26 Nov 13:42:55 13:47:17 33° 96° (E) 13:51:35 437.325
SWISSCUBE 26 Nov 13:53:31 13:58:09 45° 99° (E) 14:02:43 437.505
YUBILEINY 26 Nov 14:05:05 14:13:51 77° 79° (E) 14:22:32 435.215
AUBIESAT-1 26 Nov 14:15:32 14:20:28 69° 107° (ESE) 14:25:17 437.475
TISAT 1 26 Nov 14:20:22 14:23:15 18° 298° (WNW) 14:26:06 437.305
M-CUBED/EXP-1 PRIME 26 Nov 14:21:07 14:26:06 83° 109° (ESE) 14:30:58 437.505
AO-7 26 Nov 14:24:09 14:31:15 33° 53° (NE) 14:38:23 29.400- 29.500
BEESAT 26 Nov 14:24:23 14:29:13 82° 104° (ESE) 14:34:01 436.000
CUSAT 1 26 Nov 14:25:24 14:27:19 18° 290° (WNW) 14:29:15 437.405
ITAMSAT 1 26 Nov 14:30:23 14:35:30 54° 259° (W) 14:40:38 435.822/435.867
SPROUT 26 Nov 14:31:59 14:34:38 16° 299° (WNW) 14:37:17 437.525
O/OREOS (USA 219) 26 Nov 14:37:50 14:40:47 17° 48° (NE) 14:43:43 437.305
KKS-1 26 Nov 14:43:00 14:46:53 29° 96° (E) 14:50:44 437.445
VERMONT LUNAR 26 Nov 14:49:06 14:51:01 14° 155° (SSE) 14:52:57 437.305
HORYU 2 26 Nov 15:01:03 15:05:29 83° 75° (ENE) 15:09:57 437.375
MaSat-1 26 Nov 15:04:21 15:06:24 18° 111° (ESE) 15:08:20 437.345
Gurwin Techsat 1B 26 Nov 15:05:45 15:10:51 47° 261° (W) 15:15:59 435.225
RS-15 26 Nov 15:16:46 15:25:14 27° 103° (ESE) 15:33:40 29.354- 29.394
ITUPSAT 1 26 Nov 15:20:52 15:25:08 33° 294° (WNW) 15:29:23 437.325
SWISSCUBE 26 Nov 15:31:54 15:35:46 25° 297° (WNW) 15:39:36 437.505
STARS 26 Nov 15:37:19 15:41:43 71° 103° (ESE) 15:46:05 437.465
JAS-2 26 Nov 15:37:43 15:44:10 30° 58° (ENE) 15:50:39 435.910
AUBIESAT-1 26 Nov 15:51:25 15:54:57 20° 305° (NW) 15:58:28 437.475
M-CUBED/EXP-1 PRIME 26 Nov 15:57:20 16:00:31 17° 307° (NW) 16:03:41 437.505
YUBILEINY 26 Nov 16:03:02 16:09:43 26° 281° (W) 16:16:23 435.215
BEESAT 26 Nov 16:03:46 16:06:26 15° 303° (WNW) 16:09:06 436.000
AO-7 26 Nov 16:15:14 16:23:29 70° 254° (WSW) 16:31:50 29.400- 29.500
O/OREOS (USA 219) 26 Nov 16:16:14 16:20:42 72° 248° (WSW) 16:25:10 437.305
PHONESAT 2.4 26 Nov 16:17:12 16:20:17 25° 167° (SSE) 16:23:22 2401.200-2431.200
CUTE-I 26 Nov 16:18:55 16:21:16 13° 53° (NE) 16:23:37 437.470
KKS-1 26 Nov 16:19:35 16:23:32 32° 293° (WNW) 16:27:28 437.445
VERMONT LUNAR 26 Nov 16:25:42 16:28:50 28° 172° (S) 16:31:59 437.305
MaSat-1 26 Nov 16:38:33 16:40:49 21° 306° (NW) 16:42:57 437.345
HORYU 2 26 Nov 16:41:31 16:42:47 11° 272° (W) 16:44:03 437.375
Cubesat XI-IV 26 Nov 17:14:32 17:19:21 35° 65° (ENE) 17:24:11 437.490
STARS 26 Nov 17:15:14 17:17:40 15° 301° (WNW) 17:20:07 437.465
JAS-2 26 Nov 17:20:47 17:28:30 75° 257° (WSW) 17:36:24 435.910
RS-15 26 Nov 17:25:10 17:36:09 88° 306° (NW) 17:47:13 29.354- 29.394
MOZHAYETS 4 26 Nov 17:28:02 17:32:33 47° 99° (E) 17:37:02
CUTE-I 26 Nov 17:55:06 18:00:26 73° 73° (ENE) 18:05:47 437.470
PHONESAT 2.4 26 Nov 17:55:16 17:58:34 30° 184° (S) 18:01:53 2401.200-2431.200
GONETS M04 26 Nov 17:59:30 18:05:55 21° 57° (ENE) 18:12:16
VERMONT LUNAR 26 Nov 18:03:42 18:06:50 27° 189° (S) 18:09:57 437.305
HO-68 26 Nov 18:05:02 18:06:55 11° 40° (NE) 18:08:47 435.675
AO-7 26 Nov 18:13:34 18:17:48 15° 275° (W) 18:22:05 29.400- 29.500
STRAND 1 26 Nov 18:22:15 18:24:57 14° 88° (E) 18:27:38 437.568
PRISM 26 Nov 18:25:50 18:29:43 34° 97° (E) 18:33:33 437.425
Cubesat XI-IV 26 Nov 18:54:28 18:59:24 37° 263° (W) 19:04:22 437.490
MOZHAYETS 4 26 Nov 19:05:53 19:09:30 23° 297° (WNW) 19:13:06
JAS-2 26 Nov 19:10:05 19:14:44 17° 277° (W) 19:19:27 435.910
CUBESAT XI-V 26 Nov 19:11:28 19:15:55 42° 98° (E) 19:20:19 437.345
BRITE-PL 26 Nov 19:25:33 19:28:20 16° 61° (ENE) 19:31:01 437.365/2234.400
BEESAT 3 26 Nov 19:26:16 19:26:33 10° 108° (ESE) 19:26:50 437.485
AAUSAT CUBESAT 2 26 Nov 19:32:15 19:32:37 10° 57° (ENE) 19:32:58 437.432
AIST 1 26 Nov 19:34:07 19:37:55 29° 89° (E) 19:41:45
PHONESAT 2.4 26 Nov 19:34:11 19:36:47 18° 201° (SSW) 19:39:23 2401.200-2431.200
PCSat 26 Nov 19:35:01 19:39:46 32° 111° (ESE) 19:44:34 145.827
CUTE-I 26 Nov 19:37:38 19:41:04 17° 271° (W) 19:44:31 437.470
RS-15 26 Nov 19:40:06 19:50:04 39° 335° (NNW) 20:00:15 29.354- 29.394
BEESAT 2 26 Nov 19:40:26 19:42:29 14° 110° (ESE) 19:44:33 435.950
VERMONT LUNAR 26 Nov 19:42:52 19:44:38 13° 205° (SSW) 19:46:24 437.305
CANX-2 26 Nov 19:42:56 19:46:06 21° 64° (ENE) 19:49:16 2200.000
COMPASS 1 26 Nov 19:45:43 19:48:13 16° 61° (ENE) 19:50:45 437.405
HO-68 26 Nov 19:46:08 19:52:50 44° 62° (ENE) 19:59:34 435.675
DOVE 4 26 Nov 19:46:22 19:48:18 13° 60° (ENE) 19:50:12 437.250
GONETS M04 26 Nov 19:55:21 20:04:16 84° 81° (E) 20:13:03
STRAND 1 26 Nov 19:59:39 20:04:47 81° 286° (WNW) 20:09:52 437.568
PRISM 26 Nov 20:01:37 20:05:09 26° 295° (WNW) 20:08:39 437.425
CINEMA 3 26 Nov 20:15:53 20:18:18 15° 61° (ENE) 20:20:42 145.822/145.860
CUTE 1.7 & AOD 2 26 Nov 20:16:31 20:20:28 40° 70° (ENE) 20:24:27 437.475
AIST 2 26 Nov 20:17:37 20:20:20 17° 111° (ESE) 20:23:05 435.215
GOMX 1 26 Nov 20:29:13 20:33:36 41° 70° (ENE) 20:37:45 467.674
UKube-1 26 Nov 20:45:48 20:49:33 29° 66° (ENE) 20:53:18 .
SEEDS 26 Nov 20:48:14 20:52:25 76° 75° (ENE) 20:56:39 437.485
AISAT 26 Nov 20:48:34 20:50:20 12° 57° (ENE) 20:52:06 437.250
CUBESAT XI-V 26 Nov 20:49:22 20:53:09 25° 296° (WNW) 20:56:54 437.345
FUNcube-1 26 Nov 20:51:29 20:54:03 16° 62° (ENE) 20:56:37 145.935
Oscar 11 26 Nov 20:56:11 21:00:09 38° 69° (ENE) 21:04:09 145.826/435.025
BEESAT 3 26 Nov 20:59:55 21:04:02 86° 125° (SE) 21:08:14 437.485
BRITE-PL 26 Nov 21:01:29 21:06:26 73° 258° (WSW) 21:11:00 437.365/2234.400
AAUSAT CUBESAT 2 26 Nov 21:03:25 21:07:34 83° 76° (ENE) 21:11:47 437.432
DELFI C3 26 Nov 21:04:50 21:08:36 38° 70° (ENE) 21:12:25 145.870
AIST 1 26 Nov 21:11:42 21:15:33 29° 288° (WNW) 21:19:26
50 SAT 26 Nov 21:13:16 21:15:20 14° 61° (ENE) 21:17:25 437.505
BEESAT 2 26 Nov 21:16:04 21:20:12 75° 308° (NW) 21:24:25 435.950
CANX-2 26 Nov 21:17:46 21:21:47 42° 262° (W) 21:25:50 2200.000
PCSat 26 Nov 21:17:50 21:23:02 46° 311° (NW) 21:28:17 145.827
UWE-3 26 Nov 21:18:18 21:22:05 33° 69° (ENE) 21:25:50 435.000/436.395/437.385
COMPASS 1 26 Nov 21:19:25 21:23:31 59° 259° (W) 21:27:41 437.405
CUBEBUG 2 26 Nov 21:19:41 21:23:37 39° 70° (ENE) 21:27:31 437.445
DOVE 4 26 Nov 21:20:59 21:25:33 81° 257° (WSW) 21:29:54 437.250
DX 1 26 Nov 21:21:30 21:25:51 66° 73° (ENE) 21:30:12 434.975-435.025
